Harrow, Ontario

9:19 AM EDT on May 24, 2017 (GMT -0400)
Harrow

Weather History for CXHA - December, 2012

Change the Weather History Date:

Sunday, December 2, 2012

  Actual Average (CYQG) Record (CYQG)
Temperature  
Mean Temperature 50 °F -  
Max Temperature 52 °F 40 °F 60 °F (1998)
Min Temperature 48 °F 29 °F 14 °F (2002)
Degree Days  
Heating Degree Days 15    
Moisture  
Dew Point 48 °F    
Average Humidity 90    
Maximum Humidity 98    
Minimum Humidity 66    
Precipitation  
Precipitation 0.12 in - - ()
Sea Level Pressure  
Sea Level Pressure 29.99 in    
Wind  
Wind Speed 11 mph ()    
Max Wind Speed 17 mph    
Max Gust Speed 25 mph    
Averages and records for this station are not official NWS values.
T = Trace of Precipitation, MM = Missing Value Source: Averaged Metar Reports

Daily Weather History Graph

Daily Weather History Graph

Search for Another Location

Airport or City:

Trip Planner

Search our weather history database for the weather conditions in past years. The results will help you decide how hot, cold, wet, or windy it might be!

Date:

Astronomy

Dec. 02, 2012 Rise Set
Actual Time 7:41 AM EST 5:00 PM EST
Civil Twilight 7:10 AM EST 5:31 PM EST
Nautical Twilight 6:35 AM EST 6:06 PM EST
Astronomical Twilight 6:01 AM EST 6:40 PM EST
Moon 8:48 PM EST (12/2) 10:29 AM EST (12/2)
Length of Visible Light 10h 21m
Length of Day
9h 18m
Waning Gibbous, 86% of the Moon is Illuminated
Dec 2
Waning Gibbous
Dec 6
Last Quarter
Dec 13
New
Dec 20
First Quarter
Dec 28
Full

Hourly Weather History & Observations

Time (EST) Temp. Dew Point Humidity Pressure Visibility Wind Dir Wind Speed Gust Speed Precip Events Conditions
12:00 AM 51.8 °F 43.2 °F 72% 30.04 in - SSW 16.1 mph 23.0 mph N/A   Unknown
1:00 AM 51 °F 43 °F 66% 30.02 in - SSW 16.1 mph - -  
1:00 AM 51.1 °F 43.2 °F 74% 30.02 in - SSW 16.1 mph 25.3 mph N/A   Unknown
2:00 AM 48.6 °F 44.2 °F 85% 30.01 in - SSW 11.5 mph - 0.05 in   Unknown
3:00 AM 49.1 °F 44.4 °F 84% 30.01 in - SSW 11.5 mph - 0.02 in   Unknown
4:00 AM 49.1 °F 45.5 °F 87% 29.98 in - SSW 17.3 mph 23.0 mph 0.06 in   Unknown
5:00 AM 50.5 °F 46.4 °F 86% 29.96 in - SSW 16.1 mph 24.2 mph N/A   Unknown
6:00 AM 50.4 °F 46.6 °F 87% 29.95 in - SSW 13.8 mph - N/A   Unknown
7:00 AM 50 °F 47 °F 85% 29.94 in - SSW 11.5 mph - -  
7:00 AM 50.4 °F 46.9 °F 88% 29.94 in - SSW 11.5 mph - N/A   Unknown
8:00 AM 51.8 °F 47.3 °F 85% 29.95 in - SW 10.4 mph 17.3 mph N/A   Unknown
9:00 AM 51.3 °F 48.2 °F 89% 29.96 in - SW 11.5 mph - 0.02 in   Unknown
10:00 AM 50.0 °F 47.8 °F 92% 29.96 in - SW 11.5 mph 18.4 mph 0.04 in   Unknown
11:00 AM 50.7 °F 49.6 °F 96% 29.96 in - SW 12.7 mph 20.7 mph 0.04 in   Unknown
12:00 PM 51.3 °F 50.2 °F 96% 29.94 in - WSW 13.8 mph 20.7 mph N/A   Unknown
1:00 PM 51 °F 51 °F 98% 29.94 in - WSW 12.7 mph - -  
1:00 PM 51.4 °F 50.5 °F 97% 29.94 in - WSW 12.7 mph - N/A   Unknown
2:00 PM 52.0 °F 51.1 °F 97% 29.94 in - WSW 11.5 mph - N/A   Unknown
3:00 PM 51.8 °F 51.1 °F 97% 29.95 in - WSW 9.2 mph - N/A   Unknown
4:00 PM 52.7 °F 51.8 °F 97% 29.97 in - WSW 8.1 mph - N/A   Unknown
5:00 PM 51.8 °F 50.7 °F 96% 29.99 in - WSW 10.4 mph - N/A   Unknown
6:00 PM 52.5 °F 51.6 °F 97% 30.01 in - WSW 8.1 mph - N/A   Unknown
7:00 PM 52 °F 51 °F 95% 30.04 in - WSW 5.8 mph - -  
7:00 PM 52.0 °F 51.1 °F 97% 30.04 in - WSW 5.8 mph - N/A   Unknown
9:00 PM 50.7 °F 50.0 °F 97% 30.08 in - WSW 3.5 mph - N/A   Unknown
10:00 PM 50.7 °F 50.2 °F 98% 30.09 in - WSW 3.5 mph - N/A   Unknown
11:00 PM 50.7 °F 50.2 °F 98% 30.10 in - WNW 2.3 mph - N/A   Unknown